Total_Precipitation_Accumulation
1.81 1.76 1.68 1.45 1.28 1.23 1.23 1.21 1.18 1.17 1.09 1.05 1.02 1.06 1.18 1.18 1.19 1.38 1.47 1.48 1.61 1.70 1.65 1.68 1.85 1.95 2.07 2.08 2.10 2.10 2.14 2.11 1.99 1.74 1.38 1.23 1.38 1.43 1.47 1.28 1.25 1.31 1.26
1.48 1.38 1.26 1.18 1.10 1.08 1.07 0.99 0.92 0.97 0.95 0.99 1.01 0.95 1.09 1.23 1.24 1.28 1.28 1.27 1.41 1.51 1.52 1.58 1.62 1.63 1.73 1.87 1.99 1.96 2.02 2.06 2.04 1.93 1.62 1.41 1.43 1.54 1.72 1.67 1.52 1.40 1.37
1.35 1.26 1.16 1.08 1.09 1.07 0.97 0.92 0.79 0.74 0.81 0.92 1.08 1.06 1.03 1.10 1.18 1.18 1.17 1.18 1.22 1.26 1.29 1.36 1.39 1.49 1.63 1.64 1.71 1.79 1.86 1.90 2.02 1.98 1.86 1.75 1.63 1.59 1.68 1.65 1.68 1.78 1.70
1.49 1.35 1.26 1.16 1.08 1.06 0.91 0.82 0.74 0.77 0.83 0.84 0.84 0.95 1.01 1.05 1.10 1.10 1.09 1.07 1.07 1.07 1.17 1.24 1.29 1.35 1.46 1.52 1.54 1.67 1.80 1.88 1.91 1.88 1.82 1.75 1.72 1.71 1.71 1.69 1.76 1.89 1.97
1.21 1.01 0.92 0.94 0.93 0.87 0.82 0.76 0.68 0.65 0.64 0.70 0.69 0.70 0.78 0.90 0.93 0.92 0.94 1.00 1.04 1.05 1.14 1.16 1.19 1.19 1.24 1.31 1.31 1.48 1.63 1.80 1.85 1.87 1.78 1.69 1.63 1.66 1.65 1.64 1.73 1.96 2.01
0.88 0.81 0.78 0.75 0.71 0.70 0.71 0.69 0.64 0.57 0.52 0.55 0.55 0.62 0.66 0.71 0.87 0.89 0.85 0.89 0.97 1.00 1.05 1.08 1.17 1.20 1.15 1.11 1.09 1.16 1.29 1.40 1.58 1.70 1.74 1.66 1.57 1.55 1.68 1.79 1.79 1.94 2.07
0.60 0.55 0.58 0.65 0.62 0.60 0.66 0.69 0.67 0.63 0.58 0.55 0.55 0.59 0.56 0.56 0.70 0.71 0.83 0.97 0.96 0.92 0.90 1.03 1.12 1.14 1.18 1.17 1.06 1.05 1.04 1.08 1.19 1.37 1.49 1.49 1.48 1.51 1.63 1.76 1.86 1.94 1.86
0.52 0.48 0.47 0.53 0.58 0.61 0.63 0.65 0.65 0.64 0.60 0.65 0.65 0.65 0.57 0.49 0.59 0.65 0.79 0.86 0.86 0.83 0.86 0.95 1.08 1.16 1.21 1.23 1.16 1.20 1.13 1.00 1.00 1.06 1.23 1.33 1.37 1.55 1.73 1.90 2.04 2.06 1.94
0.47 0.47 0.48 0.48 0.54 0.59 0.59 0.58 0.58 0.58 0.57 0.64 0.73 0.72 0.61 0.53 0.59 0.65 0.78 0.86 0.92 0.89 0.87 0.92 1.07 1.13 1.28 1.34 1.23 1.28 1.24 1.03 0.96 1.06 1.10 1.19 1.32 1.49 1.71 1.94 2.04 2.08 2.07
0.42 0.46 0.51 0.54 0.54 0.54 0.60 0.67 0.64 0.62 0.61 0.63 0.65 0.63 0.56 0.54 0.57 0.60 0.70 0.74 0.86 0.93 0.95 0.94 1.16 1.24 1.34 1.29 1.19 1.34 1.41 1.23 0.98 0.97 1.05 1.17 1.28 1.44 1.71 1.88 2.13 2.17 2.01
0.45 0.49 0.51 0.51 0.53 0.58 0.62 0.68 0.71 0.67 0.62 0.57 0.54 0.53 0.52 0.51 0.56 0.56 0.62 0.56 0.62 0.72 0.82 0.88 0.87 1.04 1.13 1.17 1.21 1.22 1.35 1.24 1.08 1.16 1.26 1.28 1.37 1.45 1.59 1.74 1.98 2.17 2.13
0.41 0.43 0.44 0.45 0.49 0.56 0.63 0.63 0.65 0.68 0.67 0.62 0.55 0.50 0.51 0.50 0.49 0.49 0.55 0.56 0.62 0.66 0.67 0.75 0.82 0.98 1.02 1.06 1.07 1.09 1.15 1.15 1.16 1.32 1.35 1.24 1.27 1.35 1.43 1.59 1.74 1.85 1.77
0.39 0.41 0.45 0.49 0.54 0.55 0.63 0.64 0.65 0.67 0.69 0.69 0.69 0.65 0.61 0.56 0.51 0.56 0.56 0.57 0.64 0.64 0.69 0.81 0.86 0.94 0.88 0.86 0.94 0.99 1.03 1.18 1.30 1.28 1.27 1.19 1.16 1.22 1.28 1.44 1.59 1.71 1.67
0.47 0.47 0.49 0.53 0.58 0.61 0.62 0.67 0.70 0.72 0.76 0.75 0.72 0.71 0.68 0.65 0.56 0.52 0.52 0.55 0.62 0.64 0.72 0.83 0.88 0.89 0.83 0.81 0.86 0.94 1.02 1.18 1.36 1.23 1.10 1.09 1.11 1.21 1.29 1.33 1.40 1.46 1.61
0.48 0.50 0.55 0.57 0.63 0.69 0.69 0.70 0.75 0.79 0.89 0.90 0.84 0.81 0.77 0.73 0.72 0.76 0.68 0.63 0.68 0.71 0.77 0.86 0.96 1.02 0.98 0.96 1.01 1.03 1.05 1.07 1.16 1.10 1.11 1.18 1.25 1.25 1.31 1.38 1.40 1.38 1.38
0.50 0.53 0.55 0.58 0.62 0.67 0.74 0.76 0.81 0.82 0.90 0.91 0.93 0.90 0.80 0.81 0.85 0.86 0.86 0.81 0.81 0.84 0.91 0.90 1.01 1.16 1.19 1.18 1.21 1.22 1.22 1.17 1.19 1.18 1.22 1.25 1.26 1.26 1.27 1.38 1.47 1.50 1.41
0.51 0.55 0.57 0.58 0.62 0.67 0.69 0.75 0.79 0.77 0.77 0.78 0.80 0.83 0.82 0.82 0.78 0.77 0.83 0.87 0.90 0.95 0.88 0.90 1.10 1.17 1.18 1.19 1.23 1.29 1.23 1.11 1.13 1.16 1.14 1.15 1.17 1.18 1.21 1.26 1.34 1.39 1.38
0.52 0.58 0.62 0.63 0.66 0.70 0.70 0.70 0.72 0.76 0.74 0.68 0.68 0.72 0.77 0.79 0.76 0.76 0.83 0.89 0.91 0.97 0.96 1.10 1.26 1.32 1.28 1.24 1.19 1.14 1.07 1.01 0.99 1.01 1.07 1.10 1.15 1.19 1.20 1.19 1.20 1.24 1.26
0.52 0.53 0.59 0.66 0.67 0.67 0.68 0.69 0.68 0.69 0.70 0.69 0.69 0.73 0.78 0.79 0.79 0.80 0.81 0.82 0.89 0.95 1.03 1.14 1.26 1.34 1.27 1.16 1.09 1.03 0.98 0.96 0.94 0.95 1.01 1.07 1.08 1.13 1.12 1.12 1.11 1.16 1.18
0.52 0.64 0.67 0.65 0.63 0.64 0.67 0.69 0.70 0.74 0.77 0.77 0.76 0.80 0.82 0.78 0.78 0.83 0.84 0.85 0.92 0.98 1.01 1.04 1.04 1.03 0.97 0.95 0.99 0.97 0.95 0.97 0.96 0.94 0.99 1.02 1.08 1.15 1.15 1.10 1.10 1.10 1.10
0.58 0.67 0.71 0.65 0.59 0.61 0.66 0.71 0.70 0.70 0.73 0.77 0.77 0.81 0.87 0.80 0.81 0.85 0.84 0.84 0.89 0.94 0.96 0.96 0.98 0.99 0.97 0.95 0.97 0.98 0.98 0.97 0.97 0.99 1.04 1.07 1.08 1.11 1.16 1.18 1.13 1.13 1.15
0.58 0.65 0.68 0.65 0.62 0.65 0.71 0.72 0.72 0.68 0.66 0.66 0.67 0.73 0.81 0.78 0.82 0.84 0.84 0.86 0.88 0.90 0.91 0.90 0.88 0.92 0.98 0.98 1.01 1.06 1.06 1.04 1.04 1.10 1.15 1.17 1.18 1.15 1.15 1.16 1.15 1.14 1.15
0.57 0.58 0.61 0.65 0.68 0.76 0.77 0.75 0.73 0.69 0.67 0.65 0.67 0.68 0.70 0.71 0.75 0.79 0.81 0.85 0.87 0.89 0.91 0.91 0.87 0.87 0.88 0.89 0.91 0.98 1.01 1.01 1.05 1.15 1.26 1.31 1.32 1.31 1.27 1.22 1.18 1.20 1.21
0.58 0.62 0.65 0.67 0.69 0.71 0.73 0.76 0.76 0.74 0.72 0.69 0.69 0.71 0.73 0.72 0.73 0.77 0.77 0.78 0.79 0.81 0.82 0.85 0.85 0.83 0.85 0.88 0.90 0.91 0.92 0.94 0.99 1.06 1.18 1.30 1.35 1.36 1.39 1.40 1.34 1.31 1.31
0.65 0.66 0.69 0.72 0.71 0.73 0.76 0.76 0.77 0.78 0.76 0.76 0.77 0.75 0.76 0.75 0.76 0.79 0.76 0.75 0.75 0.76 0.78 0.80 0.81 0.79 0.81 0.83 0.87 0.92 1.08 1.10 1.02 0.99 1.04 1.19 1.28 1.32 1.33 1.38 1.43 1.44 1.44
0.74 0.74 0.73 0.75 0.80 0.81 0.83 0.83 0.81 0.80 0.81 0.80 0.80 0.80 0.81 0.83 0.85 0.89 0.88 0.88 0.87 0.84 0.84 0.85 0.85 0.86 0.86 0.84 0.86 0.96 1.06 1.01 0.99 1.04 1.04 1.07 1.17 1.26 1.32 1.37 1.38 1.45 1.51